Meridian, MS

7:36 PM CST on December 06, 2019 (GMT -0600)
Key

Weather History for KMEI - October, 2019

Change the Weather History Date:

Thursday, October 10, 2019

  Actual Average Record
Temperature  
Mean Temperature 80 °F 66 °F  
Max Temperature 91 °F 79 °F 92 °F (2010)
Min Temperature 68 °F 53 °F 36 °F (2000)
Degree Days  
Heating Degree Days 0 2  
Month to date heating degree days 0 16  
Since 1 July heating degree days 0 23  
Cooling Degree Days 15 4  
Month to date cooling degree days 168 46  
Year to date cooling degree days 2800 1969  
Growing Degree Days 30 (Base 50)    
Moisture  
Dew Point 65 °F    
Average Humidity 63    
Maximum Humidity 90    
Minimum Humidity 36    
Precipitation  
Precipitation 0.00 in 0.12 in 3.36 in (2003)
Month to date precipitation T 1.15  
Year to date precipitation 43.18 43.54  
Sea Level Pressure  
Sea Level Pressure 30.02 in    
Wind  
Wind Speed 4 mph ()    
Max Wind Speed 16 mph    
Max Gust Speed 20 mph    
Visibility 10.0 miles    
Events      
T = Trace of Precipitation, MM = Missing Value Source: Averaged Metar Reports

Daily Weather History Graph

Daily Weather History Graph

Search for Another Location

Airport or City:

Astronomy

Oct. 10, 2019 Rise Set
Actual Time 6:54 AM CDT 6:28 PM CDT
Civil Twilight 6:30 AM CDT 6:53 PM CDT
Nautical Twilight 6:01 AM CDT 7:21 PM CDT
Astronomical Twilight 5:33 AM CDT 7:49 PM CDT
Moon 5:16 PM CDT (10/10) 3:54 AM CDT (10/10)
Length of Visible Light 12h 22m
Length of Day
11h 33m
Waxing Gibbous, 91% of the Moon is Illuminated
Oct 10
Waxing Gibbous
Oct 13
Full
Oct 21
Last Quarter
Oct 27
New
Nov 4
First Quarter

Hourly Weather History & Observations

Time (CDT) Temp. Heat Index Dew Point Humidity Pressure Visibility Wind Dir Wind Speed Gust Speed Precip Events Conditions
1:58 AM 72.0 °F - 66.0 °F 81% 30.01 in 10.0 mi Calm Calm - N/A   Overcast
2:58 AM 72.0 °F - 66.0 °F 81% 30.00 in 10.0 mi Calm Calm - N/A   Mostly Cloudy
3:58 AM 70.0 °F - 64.9 °F 84% 30.01 in 10.0 mi Calm Calm - N/A   Mostly Cloudy
4:58 AM 70.0 °F - 66.0 °F 87% 30.02 in 10.0 mi Calm Calm - N/A   Overcast
5:58 AM 69.1 °F - 66.0 °F 90% 30.03 in 10.0 mi Calm Calm - N/A   Overcast
7:11 AM 72.0 °F - 66.9 °F 84% 30.05 in 10.0 mi ESE 4.6 mph - N/A   Mostly Cloudy
7:22 AM 73.0 °F - 66.9 °F 81% 30.06 in 10.0 mi Variable 3.5 mph - N/A   Overcast
7:48 AM 73.0 °F - 68.0 °F 84% 30.06 in 10.0 mi SE 5.8 mph - N/A   Overcast
7:58 AM 73.0 °F - 68.0 °F 84% 30.06 in 10.0 mi SSE 4.6 mph - N/A   Overcast
8:37 AM 75.0 °F - 66.9 °F 76% 30.08 in 10.0 mi SE 6.9 mph - N/A   Mostly Cloudy
8:58 AM 77.0 °F - 66.9 °F 71% 30.07 in 10.0 mi SSE 9.2 mph - N/A   Partly Cloudy
9:39 AM 80.1 °F 82.3 °F 66.9 °F 64% 30.08 in 10.0 mi SE 12.7 mph - N/A   Mostly Cloudy
9:58 AM 80.1 °F 82.1 °F 66.0 °F 62% 30.07 in 10.0 mi SSE 12.7 mph 18.4 mph N/A   Mostly Cloudy
10:08 AM 80.1 °F 82.1 °F 66.0 °F 62% 30.08 in 10.0 mi SE 10.4 mph 19.6 mph N/A   Mostly Cloudy
10:58 AM 84.0 °F 87.0 °F 68.0 °F 58% 30.06 in 10.0 mi SSE 10.4 mph - N/A   Clear
11:58 AM 86.0 °F 88.8 °F 66.9 °F 53% 30.05 in 10.0 mi Variable 5.8 mph 17.3 mph N/A   Clear
12:58 PM 89.1 °F 91.0 °F 64.9 °F 45% 30.03 in 10.0 mi South 9.2 mph - N/A   Partly Cloudy
1:58 PM 90.0 °F 91.3 °F 64.0 °F 42% 29.99 in 10.0 mi SSW 9.2 mph - N/A   Partly Cloudy
2:58 PM 90.0 °F 90.6 °F 63.0 °F 40% 29.97 in 10.0 mi North - - N/A   Partly Cloudy
3:58 PM 91.0 °F 90.9 °F 61.0 °F 36% 29.95 in 10.0 mi SSE 10.4 mph - N/A   Partly Cloudy
4:58 PM 90.0 °F 89.7 °F 60.1 °F 37% 29.94 in 10.0 mi SE 12.7 mph - N/A   Clear
5:58 PM 86.0 °F 85.7 °F 60.1 °F 41% 29.95 in 10.0 mi SSE 11.5 mph - N/A   Clear
6:58 PM 82.9 °F 83.3 °F 61.0 °F 47% 29.95 in 10.0 mi SE 5.8 mph - N/A   Overcast
7:58 PM 82.0 °F 82.7 °F 61.0 °F 49% 29.97 in 10.0 mi ESE 4.6 mph - N/A   Overcast
8:58 PM 82.0 °F 83.0 °F 62.1 °F 51% 29.99 in 10.0 mi ESE 6.9 mph - N/A   Overcast
9:58 PM 80.1 °F 81.2 °F 62.1 °F 54% 30.01 in 10.0 mi SE 4.6 mph - N/A   Overcast
10:58 PM 80.1 °F 81.2 °F 62.1 °F 54% 30.00 in 10.0 mi ESE 5.8 mph - N/A   Overcast
11:58 PM 77.0 °F - 63.0 °F 62% 30.00 in 10.0 mi Calm Calm - N/A   Overcast